Time,TemperatureF,DewpointF,PressureIn,WindDirection,WindDirectionDegrees,WindSpeedMPH,WindSpeedGustMPH,Humidity,HourlyPrecipIn,Conditions,Clouds,dailyrainin,SoftwareType,DateUTC
2013-01-12 00:01:00,43.1,42.5,29.44,NE,45,0.7,2.0,98,-99.99,,,-99.99,WSDL version 342,2013-01-12 05:01:00,
2013-01-12 00:03:00,43.1,42.5,29.44,NE,56,0.7,2.0,98,-99.99,,,-99.99,WSDL version 342,2013-01-12 05:03:00,
2013-01-12 00:05:00,43.2,42.6,29.44,NNE,23,0.1,2.0,98,-99.99,,,-99.99,WSDL version 342,2013-01-12 05:05:00,
2013-01-12 00:10:00,43.3,42.7,29.44,North,357,0.0,1.6,98,-99.99,,,-99.99,WSDL version 342,2013-01-12 05:10:00,
2013-01-12 00:15:00,43.2,42.6,29.44,NW,315,1.4,2.0,98,-99.99,,,-99.99,WSDL version 342,2013-01-12 05:15:00,
2013-01-12 00:20:00,43.2,42.3,29.44,NW,315,0.7,2.0,97,-99.99,,,-99.99,WSDL version 342,2013-01-12 05:20:00,
2013-01-12 00:25:00,43.2,42.3,29.44,NW,315,0.0,1.6,97,-99.99,,,-99.99,WSDL version 342,2013-01-12 05:25:00,
2013-01-12 00:30:00,43.3,42.8,29.44,NW,315,0.3,1.6,98,-99.99,,,-99.99,WSDL version 342,2013-01-12 05:30:00,
2013-01-12 00:35:00,43.4,42.9,29.44,NW,315,0.0,1.6,98,-99.99,,,-99.99,WSDL version 342,2013-01-12 05:35:00,
2013-01-12 00:40:00,43.5,42.9,29.44,North,360,0.3,2.2,98,-99.99,,,-99.99,WSDL version 342,2013-01-12 05:40:00,
2013-01-12 00:45:00,43.3,42.6,29.44,NNE,13,0.0,2.2,97,-99.99,,,-99.99,WSDL version 342,2013-01-12 05:45:00,
2013-01-12 00:50:00,43.3,42.5,29.44,NW,315,0.0,1.6,97,-99.99,,,-99.99,WSDL version 342,2013-01-12 05:50:00,
2013-01-12 00:55:00,43.5,42.7,29.44,NW,315,0.0,1.3,97,-99.99,,,-99.99,WSDL version 342,2013-01-12 05:55:00,
2013-01-12 01:00:00,43.3,42.5,29.44,NW,315,0.0,0.0,97,-99.99,,,-99.99,WSDL version 342,2013-01-12 06:00:00,
2013-01-12 01:05:00,43.2,42.3,29.44,WNW,299,0.7,2.2,97,-99.99,,,-99.99,WSDL version 342,2013-01-12 06:05:00,
2013-01-12 01:10:00,43.0,41.9,29.44,WNW,293,0.2,2.2,96,-99.99,,,-99.99,WSDL version 342,2013-01-12 06:10:00,
2013-01-12 01:15:00,43.0,41.8,29.44,WNW,293,0.0,2.0,96,-99.99,,,-99.99,WSDL version 342,2013-01-12 06:15:00,
2013-01-12 01:20:00,42.8,41.7,29.44,WNW,293,1.6,2.5,96,-99.99,,,-99.99,WSDL version 342,2013-01-12 06:20:00,
2013-01-12 01:26:00,42.8,41.6,29.44,WNW,293,2.0,2.9,96,-99.99,,,-99.99,WSDL version 342,2013-01-12 06:26:00,
2013-01-12 01:31:00,42.8,41.6,29.44,WNW,293,1.2,2.9,96,-99.99,,,-99.99,WSDL version 342,2013-01-12 06:31:00,
2013-01-12 01:36:00,42.8,41.6,29.44,West,280,2.1,2.7,96,-99.99,,,-99.99,WSDL version 342,2013-01-12 06:36:00,
2013-01-12 01:42:00,42.9,42.1,29.44,WNW,293,0.6,2.7,97,-99.99,,,-99.99,WSDL version 342,2013-01-12 06:42:00,
2013-01-12 01:47:00,42.8,41.9,29.44,WNW,293,0.3,1.6,97,-99.99,,,-99.99,WSDL version 342,2013-01-12 06:47:00,
2013-01-12 01:54:00,42.8,41.9,29.44,WNW,293,2.2,2.5,97,-99.99,,,-99.99,WSDL version 342,2013-01-12 06:54:00,
2013-01-12 01:59:00,42.8,41.9,29.47,West,270,1.2,2.5,97,-99.99,,,-99.99,WSDL version 342,2013-01-12 06:59:00,
2013-01-12 02:04:00,42.8,41.7,29.47,West,278,1.7,2.5,96,-99.99,,,-99.99,WSDL version 342,2013-01-12 07:04:00,
2013-01-12 02:09:00,42.7,41.8,29.47,WNW,293,1.7,2.5,97,-99.99,,,-99.99,WSDL version 342,2013-01-12 07:09:00,
2013-01-12 02:14:00,42.6,41.7,29.47,WNW,293,0.5,2.5,97,-99.99,,,-99.99,WSDL version 342,2013-01-12 07:14:00,
2013-01-12 02:19:00,42.7,41.8,29.47,WNW,293,0.3,2.0,97,-99.99,,,-99.99,WSDL version 342,2013-01-12 07:19:00,
2013-01-12 02:24:00,42.8,41.9,29.47,West,270,1.4,2.7,97,-99.99,,,-99.99,WSDL version 342,2013-01-12 07:24:00,
2013-01-12 02:29:00,42.8,41.9,29.47,West,270,1.3,2.7,97,-99.99,,,-99.99,WSDL version 342,2013-01-12 07:29:00,
2013-01-12 02:34:00,42.8,41.9,29.47,West,270,1.5,2.2,97,-99.99,,,-99.99,WSDL version 342,2013-01-12 07:34:00,
2013-01-12 02:39:00,42.6,41.7,29.47,West,270,2.5,2.9,97,-99.99,,,-99.99,WSDL version 342,2013-01-12 07:39:00,
2013-01-12 02:44:00,42.6,41.7,29.50,West,270,1.4,2.9,97,-99.99,,,-99.99,WSDL version 342,2013-01-12 07:44:00,
2013-01-12 02:49:00,42.4,41.6,29.50,West,270,1.5,2.5,97,-99.99,,,-99.99,WSDL version 342,2013-01-12 07:49:00,
2013-01-12 02:54:00,42.6,41.7,29.50,West,276,1.2,2.2,97,-99.99,,,-99.99,WSDL version 342,2013-01-12 07:54:00,
2013-01-12 02:59:00,42.6,41.7,29.50,WNW,293,1.5,2.5,97,-99.99,,,-99.99,WSDL version 342,2013-01-12 07:59:00,
2013-01-12 03:04:00,42.6,42.0,29.50,WNW,293,1.1,2.5,98,0.00,,,0.00,WSDL version 342,2013-01-12 08:04:00,
2013-01-12 03:09:00,42.6,42.0,29.50,WNW,293,2.1,2.7,98,0.00,,,0.00,WSDL version 342,2013-01-12 08:09:00,
2013-01-12 03:14:00,42.6,42.0,29.50,WNW,293,1.6,2.7,98,0.00,,,0.00,WSDL version 342,2013-01-12 08:14:00,
2013-01-12 03:21:00,42.5,41.9,29.50,WNW,293,1.3,2.5,98,-99.99,,,-99.99,WSDL version 342,2013-01-12 08:21:00,
2013-01-12 03:26:00,42.4,41.6,29.50,WNW,293,1.8,2.5,97,0.00,,,0.00,WSDL version 342,2013-01-12 08:26:00,
2013-01-12 03:31:00,42.4,41.5,29.47,West,270,2.5,3.1,97,-99.99,,,-99.99,WSDL version 342,2013-01-12 08:31:00,
2013-01-12 03:36:00,42.4,41.7,29.47,West,270,2.3,3.1,98,-99.99,,,-99.99,WSDL version 342,2013-01-12 08:36:00,
2013-01-12 03:41:00,42.3,41.7,29.47,West,270,2.4,3.1,98,-99.99,,,-99.99,WSDL version 342,2013-01-12 08:41:00,
2013-01-12 03:46:00,42.3,41.7,29.47,WNW,293,2.6,3.4,98,-99.99,,,-99.99,WSDL version 342,2013-01-12 08:46:00,
2013-01-12 03:51:00,42.2,41.6,29.47,WNW,293,1.8,3.4,98,-99.99,,,-99.99,WSDL version 342,2013-01-12 08:51:00,
2013-01-12 03:56:00,42.1,41.5,29.47,West,280,2.8,3.4,98,-99.99,,,-99.99,WSDL version 342,2013-01-12 08:56:00,
2013-01-12 04:01:00,42.1,41.7,29.50,WNW,284,2.9,3.6,99,-99.99,,,-99.99,WSDL version 342,2013-01-12 09:01:00,
2013-01-12 04:06:00,41.9,41.6,29.50,WNW,293,2.9,3.6,99,-99.99,,,-99.99,WSDL version 342,2013-01-12 09:06:00,
2013-01-12 04:11:00,41.9,41.6,29.50,WNW,293,2.8,4.0,99,-99.99,,,-99.99,WSDL version 342,2013-01-12 09:11:00,
2013-01-12 04:16:00,41.9,41.6,29.47,WNW,293,2.7,4.0,99,-99.99,,,-99.99,WSDL version 342,2013-01-12 09:16:00,
2013-01-12 04:21:00,41.8,41.8,29.47,WNW,293,3.7,5.4,100,-99.99,,,-99.99,WSDL version 342,2013-01-12 09:21:00,
2013-01-12 04:26:00,41.9,41.9,29.47,West,281,3.4,5.4,100,-99.99,,,-99.99,WSDL version 342,2013-01-12 09:26:00,
2013-01-12 04:32:00,41.9,41.9,29.47,West,267,3.3,4.9,100,-99.99,,,-99.99,WSDL version 342,2013-01-12 09:32:00,
2013-01-12 04:37:00,41.9,41.9,29.47,West,270,3.0,4.9,100,-99.99,,,-99.99,WSDL version 342,2013-01-12 09:37:00,
2013-01-12 04:42:00,41.9,41.9,29.47,West,281,3.4,4.0,100,-99.99,,,-99.99,WSDL version 342,2013-01-12 09:42:00,
2013-01-12 04:47:00,42.0,42.0,29.47,WNW,283,3.2,4.0,100,-99.99,,,-99.99,WSDL version 342,2013-01-12 09:47:00,
2013-01-12 04:52:00,41.9,41.9,29.47,WNW,289,3.5,4.0,100,-99.99,,,-99.99,WSDL version 342,2013-01-12 09:52:00,
2013-01-12 04:57:00,41.9,41.9,29.47,WNW,283,2.6,4.0,100,-99.99,,,-99.99,WSDL version 342,2013-01-12 09:57:00,
2013-01-12 05:02:00,42.0,42.0,29.50,West,262,3.2,3.8,100,0.00,,,0.00,WSDL version 342,2013-01-12 10:02:00,
2013-01-12 05:07:00,42.1,42.1,29.50,West,270,3.5,4.5,100,0.00,,,0.00,WSDL version 342,2013-01-12 10:07:00,
2013-01-12 05:12:00,41.9,41.9,29.50,West,276,3.3,4.5,100,0.00,,,0.00,WSDL version 342,2013-01-12 10:12:00,
2013-01-12 05:17:00,41.8,41.8,29.47,WNW,293,3.4,5.4,100,0.00,,,0.00,WSDL version 342,2013-01-12 10:17:00,
2013-01-12 05:22:00,41.7,41.7,29.47,West,278,3.8,5.4,100,-99.99,,,-99.99,WSDL version 342,2013-01-12 10:22:00,
2013-01-12 05:27:00,41.7,41.7,29.47,West,278,4.0,5.4,100,-99.99,,,-99.99,WSDL version 342,2013-01-12 10:27:00,
2013-01-12 05:33:00,41.5,41.5,29.50,WNW,296,3.3,4.9,100,-99.99,,,-99.99,WSDL version 342,2013-01-12 10:33:00,
2013-01-12 05:38:00,41.2,41.2,29.50,WNW,293,3.0,4.5,100,-99.99,,,-99.99,WSDL version 342,2013-01-12 10:38:00,
2013-01-12 05:43:00,41.0,41.0,29.47,WNW,293,3.0,4.0,100,-99.99,,,-99.99,WSDL version 342,2013-01-12 10:43:00,
2013-01-12 05:48:00,41.0,41.0,29.47,WNW,293,3.2,4.0,100,-99.99,,,-99.99,WSDL version 342,2013-01-12 10:48:00,
2013-01-12 05:53:00,40.9,40.9,29.47,WNW,293,2.1,4.0,100,0.00,,,0.00,WSDL version 342,2013-01-12 10:53:00,
2013-01-12 05:58:00,40.9,40.9,29.50,NW,305,2.3,3.1,100,0.00,,,0.00,WSDL version 342,2013-01-12 10:58:00,
2013-01-12 06:03:00,41.0,41.0,29.50,WNW,293,2.0,3.4,100,0.00,,,0.00,WSDL version 342,2013-01-12 11:03:00,
2013-01-12 06:08:00,41.0,41.0,29.50,East,87,0.6,3.4,100,-99.99,,,-99.99,WSDL version 342,2013-01-12 11:08:00,
2013-01-12 06:13:00,41.0,41.0,29.50,East,90,2.2,2.7,100,-99.99,,,-99.99,WSDL version 342,2013-01-12 11:13:00,
2013-01-12 06:19:00,41.1,41.1,29.50,ESE,113,1.4,2.7,100,-99.99,,,-99.99,WSDL version 342,2013-01-12 11:19:00,
2013-01-12 06:24:00,40.8,40.8,29.50,ENE,68,0.0,2.2,100,-99.99,,,-99.99,WSDL version 342,2013-01-12 11:24:00,
2013-01-12 06:29:00,40.5,40.5,29.50,ENE,68,1.7,2.5,100,-99.99,,,-99.99,WSDL version 342,2013-01-12 11:29:00,
2013-01-12 06:34:00,40.3,40.3,29.50,ENE,64,1.6,2.5,100,-99.99,,,-99.99,WSDL version 342,2013-01-12 11:34:00,
2013-01-12 06:39:00,40.2,40.2,29.50,NE,45,0.2,2.5,100,-99.99,,,-99.99,WSDL version 342,2013-01-12 11:39:00,
2013-01-12 06:44:00,40.1,40.1,29.50,NW,312,0.3,1.6,100,-99.99,,,-99.99,WSDL version 342,2013-01-12 11:44:00,
2013-01-12 06:49:00,40.0,40.0,29.50,WNW,293,0.0,1.1,100,-99.99,,,-99.99,WSDL version 342,2013-01-12 11:49:00,
2013-01-12 06:54:00,40.0,40.0,29.50,SW,236,0.5,2.7,100,-99.99,,,-99.99,WSDL version 342,2013-01-12 11:54:00,
2013-01-12 06:59:00,40.1,40.1,29.50,NW,315,0.1,2.7,100,-99.99,,,-99.99,WSDL version 342,2013-01-12 11:59:00,
2013-01-12 07:04:00,40.1,40.1,29.50,SSW,203,0.9,2.0,100,-99.99,,,-99.99,WSDL version 342,2013-01-12 12:04:00,
2013-01-12 07:09:00,40.2,40.2,29.50,WSW,248,1.4,2.5,100,-99.99,,,-99.99,WSDL version 342,2013-01-12 12:09:00,
2013-01-12 07:14:00,40.3,40.3,29.53,SSW,203,0.2,2.5,100,-99.99,,,-99.99,WSDL version 342,2013-01-12 12:14:00,
2013-01-12 07:19:00,40.3,40.3,29.53,SSW,203,0.0,1.6,100,-99.99,,,-99.99,WSDL version 342,2013-01-12 12:19:00,
2013-01-12 07:24:00,40.3,40.3,29.53,SSW,203,0.0,0.0,100,-99.99,,,-99.99,WSDL version 342,2013-01-12 12:24:00,
2013-01-12 07:29:00,40.4,40.4,29.53,SSW,203,0.0,0.0,100,-99.99,,,-99.99,WSDL version 342,2013-01-12 12:29:00,
2013-01-12 07:34:00,40.5,40.5,29.53,SSW,203,0.0,0.0,100,-99.99,,,-99.99,WSDL version 342,2013-01-12 12:34:00,
2013-01-12 07:40:00,40.5,40.5,29.53,SW,225,0.0,1.6,100,-99.99,,,-99.99,WSDL version 342,2013-01-12 12:40:00,
2013-01-12 07:45:00,40.5,40.5,29.56,SW,225,0.0,1.3,100,-99.99,,,-99.99,WSDL version 342,2013-01-12 12:45:00,
2013-01-12 07:50:00,40.5,40.5,29.56,SW,225,0.0,0.0,100,-99.99,,,-99.99,WSDL version 342,2013-01-12 12:50:00,
2013-01-12 07:55:00,40.6,40.6,29.56,SW,225,0.0,0.0,100,-99.99,,,-99.99,WSDL version 342,2013-01-12 12:55:00,
2013-01-12 08:00:00,40.6,40.6,29.56,SW,225,0.0,0.0,100,-99.99,,,-99.99,WSDL version 342,2013-01-12 13:00:00,
2013-01-12 08:05:00,40.8,40.8,29.56,West,280,1.0,1.6,100,-99.99,,,-99.99,WSDL version 342,2013-01-12 13:05:00,
2013-01-12 08:10:00,40.9,40.9,29.56,NW,315,0.0,2.0,100,-99.99,,,-99.99,WSDL version 342,2013-01-12 13:10:00,
2013-01-12 08:15:00,41.0,41.0,29.56,WNW,298,0.0,2.2,100,-99.99,,,-99.99,WSDL version 342,2013-01-12 13:15:00,
2013-01-12 08:20:00,41.0,41.0,29.56,SSW,203,0.6,2.2,100,-99.99,,,-99.99,WSDL version 342,2013-01-12 13:20:00,
2013-01-12 08:25:00,41.0,41.0,29.56,SW,219,1.0,1.6,100,-99.99,,,-99.99,WSDL version 342,2013-01-12 13:25:00,
2013-01-12 08:30:00,41.1,41.1,29.53,SW,222,0.6,2.0,100,0.00,,,0.00,WSDL version 342,2013-01-12 13:30:00,
2013-01-12 08:35:00,41.3,41.3,29.53,WSW,248,0.0,2.0,100,0.00,,,0.00,WSDL version 342,2013-01-12 13:35:00,
2013-01-12 08:40:00,41.5,41.5,29.53,WSW,248,1.3,2.0,100,0.00,,,0.00,WSDL version 342,2013-01-12 13:40:00,
2013-01-12 08:45:00,41.5,41.5,29.56,SW,225,2.2,3.1,100,0.00,,,0.00,WSDL version 342,2013-01-12 13:45:00,
2013-01-12 08:50:00,41.7,41.7,29.56,WSW,241,1.6,3.1,100,0.00,,,0.00,WSDL version 342,2013-01-12 13:50:00,
2013-01-12 08:55:00,41.7,41.7,29.56,WSW,248,2.0,2.9,100,-99.99,,,-99.99,WSDL version 342,2013-01-12 13:55:00,
2013-01-12 09:00:00,41.8,41.8,29.56,West,273,2.1,3.1,100,-99.99,,,-99.99,WSDL version 342,2013-01-12 14:00:00,
2013-01-12 09:05:00,41.8,41.8,29.56,WNW,293,2.7,4.0,100,-99.99,,,-99.99,WSDL version 342,2013-01-12 14:05:00,
2013-01-12 09:10:00,41.7,41.7,29.56,WSW,255,3.2,4.3,100,-99.99,,,-99.99,WSDL version 342,2013-01-12 14:10:00,
2013-01-12 09:15:00,41.8,41.8,29.56,WNW,285,1.8,4.3,100,-99.99,,,-99.99,WSDL version 342,2013-01-12 14:15:00,
2013-01-12 09:20:00,42.1,42.1,29.56,West,274,3.2,4.3,100,0.00,,,0.00,WSDL version 342,2013-01-12 14:20:00,
2013-01-12 09:25:00,42.2,42.2,29.56,West,267,3.0,4.3,100,0.00,,,0.00,WSDL version 342,2013-01-12 14:25:00,
2013-01-12 09:30:00,42.4,42.4,29.56,WSW,252,2.6,4.3,100,-99.99,,,-99.99,WSDL version 342,2013-01-12 14:30:00,
2013-01-12 09:35:00,42.6,42.6,29.56,West,270,2.4,4.0,100,-99.99,,,-99.99,WSDL version 342,2013-01-12 14:35:00,
2013-01-12 09:40:00,42.6,42.6,29.56,West,270,2.3,4.0,100,-99.99,,,-99.99,WSDL version 342,2013-01-12 14:40:00,
2013-01-12 09:45:00,42.5,42.5,29.56,West,264,2.9,3.8,100,-99.99,,,-99.99,WSDL version 342,2013-01-12 14:45:00,
2013-01-12 09:50:00,42.7,42.7,29.56,WSW,245,2.6,4.3,100,-99.99,,,-99.99,WSDL version 342,2013-01-12 14:50:00,
2013-01-12 09:55:00,43.1,43.1,29.56,West,266,2.9,4.3,100,-99.99,,,-99.99,WSDL version 342,2013-01-12 14:55:00,
2013-01-12 10:00:00,42.9,42.9,29.56,WNW,293,3.2,4.3,100,0.00,,,0.00,WSDL version 342,2013-01-12 15:00:00,
2013-01-12 10:05:00,42.8,42.8,29.56,WNW,283,2.6,4.3,100,-99.99,,,-99.99,WSDL version 342,2013-01-12 15:05:00,
2013-01-12 10:10:00,42.8,42.8,29.56,WNW,301,2.4,4.0,100,0.00,,,0.00,WSDL version 342,2013-01-12 15:10:00,
2013-01-12 10:15:00,42.8,42.8,29.53,NW,312,1.4,4.0,100,0.00,,,0.00,WSDL version 342,2013-01-12 15:15:00,
2013-01-12 10:20:00,42.7,42.7,29.53,West,273,2.4,3.6,100,0.00,,,0.00,WSDL version 342,2013-01-12 15:20:00,
2013-01-12 10:25:00,42.9,42.9,29.53,WNW,298,2.2,3.4,100,0.00,,,0.00,WSDL version 342,2013-01-12 15:25:00,
2013-01-12 10:30:00,43.1,43.1,29.56,NW,315,1.8,4.0,100,0.00,,,0.00,WSDL version 342,2013-01-12 15:30:00,
2013-01-12 10:35:00,43.6,43.6,29.56,WSW,253,1.5,4.0,100,-99.99,,,-99.99,WSDL version 342,2013-01-12 15:35:00,
2013-01-12 10:40:00,43.9,43.9,29.56,West,270,1.4,3.4,100,0.00,,,0.00,WSDL version 342,2013-01-12 15:40:00,
2013-01-12 10:45:00,44.0,44.0,29.56,WNW,293,1.8,3.4,100,0.00,,,0.00,WSDL version 342,2013-01-12 15:45:00,
2013-01-12 10:50:00,44.2,44.2,29.56,West,267,2.5,3.1,100,-99.99,,,-99.99,WSDL version 342,2013-01-12 15:50:00,
2013-01-12 10:55:00,44.6,44.6,29.56,NW,309,1.2,3.1,100,-99.99,,,-99.99,WSDL version 342,2013-01-12 15:55:00,
2013-01-12 11:00:00,44.7,44.7,29.56,WNW,293,2.0,3.1,100,-99.99,,,-99.99,WSDL version 342,2013-01-12 16:00:00,
2013-01-12 11:05:00,44.8,44.8,29.56,WNW,283,0.0,2.9,100,-99.99,,,-99.99,WSDL version 342,2013-01-12 16:05:00,
2013-01-12 11:10:00,44.9,44.9,29.56,West,276,2.2,2.7,100,-99.99,,,-99.99,WSDL version 342,2013-01-12 16:10:00,
2013-01-12 11:15:00,45.3,45.3,29.56,WNW,293,1.7,3.4,100,-99.99,,,-99.99,WSDL version 342,2013-01-12 16:15:00,
2013-01-12 11:20:00,45.3,45.3,29.56,WNW,293,1.6,3.6,100,-99.99,,,-99.99,WSDL version 342,2013-01-12 16:20:00,
2013-01-12 11:25:00,45.4,45.4,29.56,West,278,0.1,3.6,100,-99.99,,,-99.99,WSDL version 342,2013-01-12 16:25:00,
2013-01-12 11:30:00,45.5,45.5,29.56,WNW,295,2.9,3.8,100,-99.99,,,-99.99,WSDL version 342,2013-01-12 16:30:00,
2013-01-12 11:35:00,45.9,45.9,29.56,WSW,255,1.8,3.8,100,-99.99,,,-99.99,WSDL version 342,2013-01-12 16:35:00,
2013-01-12 11:40:00,45.8,45.8,29.56,SW,236,1.6,2.7,100,-99.99,,,-99.99,WSDL version 342,2013-01-12 16:40:00,
2013-01-12 11:45:00,45.5,45.5,29.56,West,267,3.6,5.6,100,-99.99,,,-99.99,WSDL version 342,2013-01-12 16:45:00,
2013-01-12 11:50:00,45.1,45.1,29.56,WSW,257,2.3,6.5,100,-99.99,,,-99.99,WSDL version 342,2013-01-12 16:50:00,
2013-01-12 11:55:00,44.9,44.9,29.56,West,270,3.7,6.5,100,-99.99,,,-99.99,WSDL version 342,2013-01-12 16:55:00,
2013-01-12 12:00:00,44.8,44.7,29.56,West,264,2.9,5.4,99,-99.99,,,-99.99,WSDL version 342,2013-01-12 17:00:00,
2013-01-12 12:05:00,44.6,44.2,29.56,SW,229,2.7,4.3,98,-99.99,,,-99.99,WSDL version 342,2013-01-12 17:05:00,
2013-01-12 12:10:00,44.8,44.2,29.56,WNW,301,1.7,4.3,98,-99.99,,,-99.99,WSDL version 342,2013-01-12 17:10:00,
2013-01-12 12:15:00,44.8,44.2,29.53,WNW,289,2.2,3.6,98,-99.99,,,-99.99,WSDL version 342,2013-01-12 17:15:00,
2013-01-12 12:20:00,44.8,43.9,29.53,West,264,2.8,4.7,97,-99.99,,,-99.99,WSDL version 342,2013-01-12 17:20:00,
2013-01-12 12:25:00,44.8,43.8,29.53,WNW,288,3.1,4.7,96,-99.99,,,-99.99,WSDL version 342,2013-01-12 17:25:00,
2013-01-12 12:30:00,45.0,43.8,29.53,West,259,1.9,4.3,96,-99.99,,,-99.99,WSDL version 342,2013-01-12 17:30:00,
2013-01-12 12:35:00,45.1,43.8,29.53,West,270,1.9,4.0,94,-99.99,,,-99.99,WSDL version 342,2013-01-12 17:35:00,
2013-01-12 12:40:00,45.6,44.4,29.53,NW,325,2.0,3.4,96,-99.99,,,-99.99,WSDL version 342,2013-01-12 17:40:00,
2013-01-12 12:45:00,45.8,44.6,29.53,NW,305,2.9,3.8,96,-99.99,,,-99.99,WSDL version 342,2013-01-12 17:45:00,
2013-01-12 12:50:00,46.6,45.4,29.53,North,353,1.8,3.8,96,-99.99,,,-99.99,WSDL version 342,2013-01-12 17:50:00,
2013-01-12 12:55:00,47.1,45.8,29.53,WSW,248,2.5,3.6,94,-99.99,,,-99.99,WSDL version 342,2013-01-12 17:55:00,
2013-01-12 13:00:00,47.2,45.5,29.53,South,191,1.3,3.6,93,-99.99,,,-99.99,WSDL version 342,2013-01-12 18:00:00,
2013-01-12 13:05:00,47.7,45.4,29.53,SW,225,2.0,4.3,90,-99.99,,,-99.99,WSDL version 342,2013-01-12 18:05:00,
2013-01-12 13:10:00,47.8,44.1,29.53,SW,233,1.8,4.3,86,-99.99,,,-99.99,WSDL version 342,2013-01-12 18:10:00,
2013-01-12 13:15:00,48.2,43.3,29.56,SW,222,2.2,4.0,81,-99.99,,,-99.99,WSDL version 342,2013-01-12 18:15:00,
2013-01-12 13:20:00,48.4,42.1,29.56,West,276,1.2,3.1,79,0.00,,,0.00,WSDL version 342,2013-01-12 18:20:00,
2013-01-12 13:25:00,48.6,41.8,29.56,SW,233,1.2,3.4,77,-99.99,,,-99.99,WSDL version 342,2013-01-12 18:25:00,
2013-01-12 13:30:00,48.3,40.3,29.53,WNW,289,1.9,4.5,73,-99.99,,,-99.99,WSDL version 342,2013-01-12 18:30:00,
2013-01-12 13:35:00,48.6,41.0,29.53,NE,51,2.0,4.5,75,-99.99,,,-99.99,WSDL version 342,2013-01-12 18:35:00,
2013-01-12 13:40:00,48.9,41.6,29.53,South,183,0.7,3.6,76,0.00,,,0.00,WSDL version 342,2013-01-12 18:40:00,
2013-01-12 13:45:00,48.8,41.4,29.56,NW,326,0.0,2.5,76,-99.99,,,-99.99,WSDL version 342,2013-01-12 18:45:00,
2013-01-12 13:50:00,49.3,42.3,29.56,NNW,328,1.7,2.7,77,0.00,,,0.00,WSDL version 342,2013-01-12 18:50:00,
2013-01-12 13:55:00,49.4,41.9,29.56,WNW,293,1.9,3.8,75,0.00,,,0.00,WSDL version 342,2013-01-12 18:55:00,
2013-01-12 14:00:00,49.5,41.3,29.56,WNW,287,1.8,3.8,73,-99.99,,,-99.99,WSDL version 342,2013-01-12 19:00:00,
2013-01-12 14:05:00,50.1,42.1,29.56,SSW,211,0.6,2.9,74,0.00,,,0.00,WSDL version 342,2013-01-12 19:05:00,
2013-01-12 14:10:00,49.8,40.8,29.56,WSW,255,2.5,3.6,70,-99.99,,,-99.99,WSDL version 342,2013-01-12 19:10:00,
2013-01-12 14:15:00,50.0,40.6,29.53,SW,228,0.0,3.6,70,0.00,,,0.00,WSDL version 342,2013-01-12 19:15:00,
2013-01-12 14:20:00,49.9,40.5,29.53,SSE,161,2.0,2.5,70,-99.99,,,-99.99,WSDL version 342,2013-01-12 19:20:00,
2013-01-12 14:25:00,49.6,40.0,29.53,ESE,110,1.5,2.5,70,0.00,,,0.00,WSDL version 342,2013-01-12 19:25:00,
2013-01-12 14:30:00,49.9,40.9,29.53,ESE,116,1.1,2.5,71,0.00,,,0.00,WSDL version 342,2013-01-12 19:30:00,
2013-01-12 14:35:00,50.0,40.5,29.53,East,90,1.7,3.4,69,-99.99,,,-99.99,WSDL version 342,2013-01-12 19:35:00,
2013-01-12 14:40:00,50.1,40.3,29.53,East,94,1.2,3.4,69,0.00,,,0.00,WSDL version 342,2013-01-12 19:40:00,
2013-01-12 14:45:00,50.1,40.2,29.50,ENE,70,0.6,3.1,69,0.00,,,0.00,WSDL version 342,2013-01-12 19:45:00,
2013-01-12 14:50:00,50.0,39.9,29.50,East,90,1.4,3.1,68,0.00,,,0.00,WSDL version 342,2013-01-12 19:50:00,
2013-01-12 14:55:00,49.5,39.4,29.50,ENE,68,0.0,2.7,68,0.00,,,0.00,WSDL version 342,2013-01-12 19:55:00,
2013-01-12 15:01:00,49.4,39.7,29.53,ESE,119,1.6,2.7,69,0.00,,,0.00,WSDL version 342,2013-01-12 20:01:00,
2013-01-12 15:06:00,48.9,38.5,29.53,East,80,1.8,2.9,67,0.00,,,0.00,WSDL version 342,2013-01-12 20:06:00,
2013-01-12 15:11:00,48.5,38.4,29.53,NW,309,1.4,3.6,68,0.00,,,0.00,WSDL version 342,2013-01-12 20:11:00,
2013-01-12 15:16:00,48.5,38.6,29.56,NNE,20,0.8,3.6,69,-99.99,,,-99.99,WSDL version 342,2013-01-12 20:16:00,
2013-01-12 15:21:00,48.6,39.1,29.56,NNW,341,0.7,2.5,70,-99.99,,,-99.99,WSDL version 342,2013-01-12 20:21:00,
2013-01-12 15:26:00,48.6,39.4,29.56,North,360,0.0,2.2,71,-99.99,,,-99.99,WSDL version 342,2013-01-12 20:26:00,
2013-01-12 15:31:00,48.6,39.6,29.53,NE,39,0.0,2.0,71,0.00,,,0.00,WSDL version 342,2013-01-12 20:31:00,
2013-01-12 15:36:00,48.7,40.0,29.53,SE,132,0.0,1.6,72,0.00,,,0.00,WSDL version 342,2013-01-12 20:36:00,
2013-01-12 15:41:00,48.7,40.0,29.53,ESE,113,1.3,2.0,71,0.00,,,0.00,WSDL version 342,2013-01-12 20:41:00,
2013-01-12 15:46:00,48.8,40.2,29.56,NE,45,0.6,2.0,72,0.00,,,0.00,WSDL version 342,2013-01-12 20:46:00,
2013-01-12 15:51:00,48.9,40.3,29.56,NNE,18,1.8,2.5,72,-99.99,,,-99.99,WSDL version 342,2013-01-12 20:51:00,
2013-01-12 15:56:00,48.9,40.3,29.56,WNW,284,0.4,2.5,72,0.00,,,0.00,WSDL version 342,2013-01-12 20:56:00,
2013-01-12 16:01:00,49.0,40.4,29.53,NE,45,0.4,2.5,72,0.00,,,0.00,WSDL version 342,2013-01-12 21:01:00,
2013-01-12 16:06:00,49.0,40.3,29.53,NNW,341,0.4,1.6,71,0.00,,,0.00,WSDL version 342,2013-01-12 21:06:00,
2013-01-12 16:11:00,48.9,39.9,29.53,North,354,0.0,1.6,71,-99.99,,,-99.99,WSDL version 342,2013-01-12 21:11:00,
2013-01-12 16:16:00,48.8,39.8,29.53,NW,315,0.0,2.0,71,-99.99,,,-99.99,WSDL version 342,2013-01-12 21:16:00,
2013-01-12 16:21:00,48.6,39.7,29.53,ENE,76,0.0,2.0,71,0.00,,,0.00,WSDL version 342,2013-01-12 21:21:00,
2013-01-12 16:26:00,48.3,39.3,29.53,East,98,0.0,1.3,71,-99.99,,,-99.99,WSDL version 342,2013-01-12 21:26:00,
2013-01-12 16:31:00,48.1,39.4,29.56,East,90,0.5,1.3,72,0.00,,,0.00,WSDL version 342,2013-01-12 21:31:00,
2013-01-12 16:37:00,48.0,39.5,29.56,SE,132,0.0,1.1,72,0.00,,,0.00,WSDL version 342,2013-01-12 21:37:00,
2013-01-12 16:42:00,47.8,39.3,29.56,SE,135,0.1,1.3,72,0.00,,,0.00,WSDL version 342,2013-01-12 21:42:00,
2013-01-12 16:47:00,47.7,39.3,29.56,SE,135,1.5,2.2,73,-99.99,,,-99.99,WSDL version 342,2013-01-12 21:47:00,
2013-01-12 16:52:00,47.4,39.2,29.56,East,90,1.2,2.2,73,0.00,,,0.00,WSDL version 342,2013-01-12 21:52:00,
2013-01-12 16:57:00,47.2,39.3,29.56,East,90,0.0,2.0,74,-99.99,,,-99.99,WSDL version 342,2013-01-12 21:57:00,
2013-01-12 17:02:00,47.0,39.2,29.56,East,90,0.0,1.3,74,-99.99,,,-99.99,WSDL version 342,2013-01-12 22:02:00,
2013-01-12 17:07:00,46.9,39.1,29.56,East,90,0.0,0.0,74,-99.99,,,-99.99,WSDL version 342,2013-01-12 22:07:00,
2013-01-12 17:12:00,46.8,39.0,29.56,East,90,0.0,0.0,74,0.00,,,0.00,WSDL version 342,2013-01-12 22:12:00,
2013-01-12 17:18:00,46.5,38.7,29.56,ENE,68,0.0,0.0,74,0.00,,,0.00,WSDL version 342,2013-01-12 22:18:00,
2013-01-12 17:23:00,46.3,38.7,29.56,ENE,68,0.0,0.0,75,0.00,,,0.00,WSDL version 342,2013-01-12 22:23:00,
2013-01-12 17:28:00,46.1,39.0,29.53,ENE,68,0.0,0.0,76,-99.99,,,-99.99,WSDL version 342,2013-01-12 22:28:00,
2013-01-12 17:33:00,45.9,38.8,29.53,ENE,68,0.0,0.0,76,0.00,,,0.00,WSDL version 342,2013-01-12 22:33:00,
2013-01-12 17:38:00,45.9,39.0,29.53,ENE,68,0.0,0.0,77,0.00,,,0.00,WSDL version 342,2013-01-12 22:38:00,
2013-01-12 17:43:00,45.8,39.0,29.56,ESE,113,0.0,0.0,77,0.00,,,0.00,WSDL version 342,2013-01-12 22:43:00,
2013-01-12 17:48:00,45.6,39.1,29.56,ESE,113,0.0,0.0,78,0.00,,,0.00,WSDL version 342,2013-01-12 22:48:00,
2013-01-12 17:53:00,45.5,39.0,29.56,ESE,113,0.0,1.6,78,-99.99,,,-99.99,WSDL version 342,2013-01-12 22:53:00,
2013-01-12 17:59:00,45.3,38.9,29.56,ESE,113,0.0,1.6,78,0.00,,,0.00,WSDL version 342,2013-01-12 22:59:00,
2013-01-12 18:04:00,45.2,39.1,29.56,ESE,113,1.6,2.5,79,0.00,,,0.00,WSDL version 342,2013-01-12 23:04:00,
2013-01-12 18:09:00,45.1,39.1,29.56,ESE,113,1.5,2.5,80,0.00,,,0.00,WSDL version 342,2013-01-12 23:09:00,
2013-01-12 18:14:00,44.8,39.7,29.56,East,90,1.6,2.5,82,0.00,,,0.00,WSDL version 342,2013-01-12 23:14:00,
2013-01-12 18:20:00,44.7,39.9,29.56,East,90,1.2,2.5,82,0.00,,,0.00,WSDL version 342,2013-01-12 23:20:00,
2013-01-12 18:25:00,44.6,39.3,29.56,NNW,338,0.0,1.6,81,0.00,,,0.00,WSDL version 342,2013-01-12 23:25:00,
2013-01-12 18:31:00,44.6,39.2,29.53,NNW,338,0.0,0.0,81,0.00,,,0.00,WSDL version 342,2013-01-12 23:31:00,
2013-01-12 18:36:00,44.6,39.2,29.53,SE,135,1.9,2.5,81,-99.99,,,-99.99,WSDL version 342,2013-01-12 23:36:00,
2013-01-12 18:41:00,44.4,39.1,29.53,SE,135,0.4,2.5,82,-99.99,,,-99.99,WSDL version 342,2013-01-12 23:41:00,
2013-01-12 18:46:00,44.4,39.3,29.56,SE,135,0.0,1.6,82,-99.99,,,-99.99,WSDL version 342,2013-01-12 23:46:00,
2013-01-12 18:51:00,44.4,39.3,29.56,SE,135,0.0,1.1,82,0.00,,,0.00,WSDL version 342,2013-01-12 23:51:00,
2013-01-12 18:58:00,44.4,39.5,29.56,NNE,23,0.0,1.1,83,0.00,,,0.00,WSDL version 342,2013-01-12 23:58:00,
2013-01-12 19:03:00,44.4,39.7,29.56,North,360,0.0,0.0,83,0.00,,,0.00,WSDL version 342,2013-01-13 00:03:00,
2013-01-12 19:08:00,44.4,39.9,29.56,SE,135,0.2,2.0,84,-99.99,,,-99.99,WSDL version 342,2013-01-13 00:08:00,
2013-01-12 19:13:00,44.4,40.1,29.53,ESE,113,0.2,2.5,84,0.00,,,0.00,WSDL version 342,2013-01-13 00:13:00,
2013-01-12 19:18:00,44.4,40.0,29.53,ESE,113,0.6,2.5,84,0.00,,,0.00,WSDL version 342,2013-01-13 00:18:00,
2013-01-12 19:24:00,44.4,40.0,29.53,ENE,68,0.6,2.0,84,0.00,,,0.00,WSDL version 342,2013-01-13 00:24:00,
2013-01-12 19:29:00,44.3,39.9,29.56,NW,315,0.0,1.3,84,-99.99,,,-99.99,WSDL version 342,2013-01-13 00:29:00,
2013-01-12 19:34:00,44.2,39.9,29.56,West,270,0.0,0.0,84,0.00,,,0.00,WSDL version 342,2013-01-13 00:34:00,
2013-01-12 19:39:00,44.2,39.9,29.56,West,260,0.0,0.0,84,0.00,,,0.00,WSDL version 342,2013-01-13 00:39:00,
2013-01-12 19:44:00,44.1,39.7,29.56,SSE,164,1.8,2.7,84,0.00,,,0.00,WSDL version 342,2013-01-13 00:44:00,
2013-01-12 19:49:00,44.1,40.0,29.56,WSW,248,0.0,2.7,86,-99.99,,,-99.99,WSDL version 342,2013-01-13 00:49:00,
2013-01-12 19:54:00,44.1,40.2,29.56,SW,218,2.0,3.1,87,-99.99,,,-99.99,WSDL version 342,2013-01-13 00:54:00,
2013-01-12 19:59:00,43.9,40.2,29.56,SW,225,0.4,3.1,87,0.00,,,0.00,WSDL version 342,2013-01-13 00:59:00,
2013-01-12 20:04:00,43.9,40.2,29.56,SSW,199,1.1,2.9,87,0.00,,,0.00,WSDL version 342,2013-01-13 01:04:00,
2013-01-12 20:09:00,43.8,40.5,29.56,SSW,203,0.3,2.9,88,-99.99,,,-99.99,WSDL version 342,2013-01-13 01:09:00,
2013-01-12 20:14:00,43.7,40.4,29.53,SSE,149,1.6,2.7,88,0.00,,,0.00,WSDL version 342,2013-01-13 01:14:00,
2013-01-12 20:19:00,43.7,40.4,29.53,ESE,118,0.7,2.7,89,0.00,,,0.00,WSDL version 342,2013-01-13 01:19:00,
2013-01-12 20:24:00,43.7,40.6,29.53,SE,125,1.9,2.9,89,0.00,,,0.00,WSDL version 342,2013-01-13 01:24:00,
2013-01-12 20:29:00,43.7,40.6,29.56,South,188,0.8,2.9,89,0.00,,,0.00,WSDL version 342,2013-01-13 01:29:00,
2013-01-12 20:34:00,43.6,40.8,29.56,South,191,1.6,2.9,90,0.00,,,0.00,WSDL version 342,2013-01-13 01:34:00,
2013-01-12 20:40:00,43.5,40.5,29.56,NE,45,0.0,2.9,89,-99.99,,,-99.99,WSDL version 342,2013-01-13 01:40:00,
2013-01-12 20:45:00,43.5,40.5,29.56,WSW,248,0.0,1.1,89,0.00,,,0.00,WSDL version 342,2013-01-13 01:45:00,
2013-01-12 20:50:00,43.5,40.5,29.56,NNE,23,0.0,1.1,90,0.00,,,0.00,WSDL version 342,2013-01-13 01:50:00,
2013-01-12 20:55:00,43.5,40.8,29.56,NNE,23,0.0,0.0,90,0.00,,,0.00,WSDL version 342,2013-01-13 01:55:00,
2013-01-12 21:00:00,43.5,40.9,29.53,ESE,105,0.6,2.0,91,-99.99,,,-99.99,WSDL version 342,2013-01-13 02:00:00,
2013-01-12 21:05:00,43.3,40.9,29.53,ESE,113,0.0,2.0,91,0.00,,,0.00,WSDL version 342,2013-01-13 02:05:00,
2013-01-12 21:10:00,43.3,40.9,29.53,SE,135,0.0,1.6,91,0.00,,,0.00,WSDL version 342,2013-01-13 02:10:00,
2013-01-12 21:15:00,43.3,40.9,29.53,SE,135,0.0,0.0,91,0.00,,,0.00,WSDL version 342,2013-01-13 02:15:00,
2013-01-12 21:20:00,43.3,40.9,29.53,SE,135,0.0,0.0,91,-99.99,,,-99.99,WSDL version 342,2013-01-13 02:20:00,
2013-01-12 21:25:00,43.3,40.8,29.53,SE,135,0.0,0.0,91,0.00,,,0.00,WSDL version 342,2013-01-13 02:25:00,
2013-01-12 21:30:00,43.3,40.8,29.53,East,100,0.0,0.0,91,-99.99,,,-99.99,WSDL version 342,2013-01-13 02:30:00,
2013-01-12 21:35:00,43.2,40.7,29.53,ESE,113,1.9,2.9,91,0.00,,,0.00,WSDL version 342,2013-01-13 02:35:00,
2013-01-12 21:40:00,43.2,40.8,29.53,ESE,113,0.8,2.9,92,0.00,,,0.00,WSDL version 342,2013-01-13 02:40:00,
2013-01-12 21:45:00,43.2,41.0,29.53,SSE,158,0.2,2.0,91,0.00,,,0.00,WSDL version 342,2013-01-13 02:45:00,
2013-01-12 21:51:00,43.2,40.7,29.53,SE,135,1.8,2.7,91,0.00,,,0.00,WSDL version 342,2013-01-13 02:51:00,
2013-01-12 21:56:00,43.3,40.8,29.53,SE,135,0.0,2.7,91,0.00,,,0.00,WSDL version 342,2013-01-13 02:56:00,
2013-01-12 22:01:00,43.2,40.8,29.53,SW,222,0.4,2.5,91,0.00,,,0.00,WSDL version 342,2013-01-13 03:01:00,
2013-01-12 22:06:00,43.1,40.7,29.53,ESE,116,1.8,3.1,91,0.00,,,0.00,WSDL version 342,2013-01-13 03:06:00,
2013-01-12 22:11:00,43.0,40.7,29.53,ESE,113,0.0,3.1,92,0.00,,,0.00,WSDL version 342,2013-01-13 03:11:00,
2013-01-12 22:16:00,43.0,40.9,29.50,SE,129,0.4,2.5,92,-99.99,,,-99.99,WSDL version 342,2013-01-13 03:16:00,
2013-01-12 22:21:00,43.0,40.9,29.50,West,270,0.9,2.5,92,0.00,,,0.00,WSDL version 342,2013-01-13 03:21:00,
2013-01-12 22:26:00,43.0,40.9,29.50,West,270,0.0,1.6,92,0.00,,,0.00,WSDL version 342,2013-01-13 03:26:00,
2013-01-12 22:31:00,43.0,40.9,29.50,West,270,0.0,0.9,92,0.00,,,0.00,WSDL version 342,2013-01-13 03:31:00,
2013-01-12 22:36:00,43.0,40.9,29.50,West,270,0.0,0.0,92,0.00,,,0.00,WSDL version 342,2013-01-13 03:36:00,
2013-01-12 22:41:00,42.9,40.8,29.50,West,270,0.4,1.3,92,0.00,,,0.00,WSDL version 342,2013-01-13 03:41:00,
2013-01-12 22:46:00,42.8,40.6,29.53,West,270,0.0,1.3,92,-99.99,,,-99.99,WSDL version 342,2013-01-13 03:46:00,
2013-01-12 22:51:00,42.8,40.7,29.53,West,270,1.2,1.6,92,0.00,,,0.00,WSDL version 342,2013-01-13 03:51:00,
2013-01-12 22:56:00,42.8,40.7,29.53,West,270,0.0,1.6,92,0.00,,,0.00,WSDL version 342,2013-01-13 03:56:00,
2013-01-12 23:01:00,42.8,40.7,29.56,West,270,0.0,0.0,92,0.00,,,0.00,WSDL version 342,2013-01-13 04:01:00,
2013-01-12 23:06:00,42.8,40.7,29.56,WSW,248,0.0,0.9,92,0.00,,,0.00,WSDL version 342,2013-01-13 04:06:00,
2013-01-12 23:11:00,42.8,40.7,29.56,WSW,248,0.0,0.9,92,0.00,,,0.00,WSDL version 342,2013-01-13 04:11:00,
2013-01-12 23:16:00,42.8,40.7,29.53,West,263,1.1,2.2,92,0.00,,,0.00,WSDL version 342,2013-01-13 04:16:00,
2013-01-12 23:21:00,42.6,40.5,29.53,West,268,1.9,2.5,92,0.00,,,0.00,WSDL version 342,2013-01-13 04:21:00,
2013-01-12 23:26:00,42.6,40.5,29.53,West,270,1.8,2.5,92,0.00,,,0.00,WSDL version 342,2013-01-13 04:26:00,
2013-01-12 23:31:00,42.5,40.4,29.56,West,270,2.0,2.7,92,-99.99,,,-99.99,WSDL version 342,2013-01-13 04:31:00,
2013-01-12 23:36:00,42.4,40.3,29.56,West,270,1.0,2.7,92,0.00,,,0.00,WSDL version 342,2013-01-13 04:36:00,
2013-01-12 23:41:00,42.4,40.3,29.56,WNW,293,1.9,2.9,92,0.00,,,0.00,WSDL version 342,2013-01-13 04:41:00,
2013-01-12 23:46:00,42.4,40.3,29.56,West,280,1.9,3.1,92,0.00,,,0.00,WSDL version 342,2013-01-13 04:46:00,
2013-01-12 23:51:00,42.3,40.4,29.56,WSW,248,1.5,3.1,93,0.00,,,0.00,WSDL version 342,2013-01-13 04:51:00,
2013-01-12 23:56:00,42.3,40.5,29.56,West,281,0.8,2.9,93,0.00,,,0.00,WSDL version 342,2013-01-13 04:56:00,